Regional Weather Roundup
Issued by NWS

Home | Current Version | Previous Version | Text Only | Print | Product List | Glossary On
Versions: 1 2 3 4 5 6 7 8 9 10 11 12 13 14 15 16 17 18 19 20 21 22 23 24 25 26 27 28 29 30 31 32 33 34 35 36 37 38 39 40 41 42 43 44 45 46 47 48 49 50
802
ASUS44 KFWD 080415
RWRTX
NORTH TEXAS HOURLY WEATHER ROUNDUP
NATIONAL WEATHER SERVICE FORT WORTH TX
1000 PM CST SUN FEB 07 2016

NOTE: "FAIR" INDICATES FEW OR NO CLOUDS BELOW 12,000 FEET WITH NO
SIGNIFICANT WEATHER AND/OR OBSTRUCTIONS TO VISIBILITY.

TXZ118-119-080500-
DALLAS/FORT WORTH METROPLEX

CITY           SKY/WX    TMP DP  RH WIND       PRES   REMARKS
DFW AIRPORT    PTCLDY    47  31  53 N9        30.22R
DALLAS LOVE    CLEAR     49  34  56 N10       30.22R
FTW MEACHAM    CLEAR     53  30  41 N10       30.22R
DAL-EXECUTIVE  CLEAR     50  33  52 NW10      30.20R
FTW-ALLIANCE   PTCLDY    48  31  51 N9        30.23R
FTW-NAS-JRB    PTCLDY    49  34  56 N9        30.23R
FTW-SPINKS     PTCLDY    48  32  53 NW8       30.24R
ARLINGTON      PTCLDY    52  31  44 NW10      30.22R
GRAND PRAIRIE  PTCLDY    55  29  37 NW7       30.23R
ADDISON        CLEAR     52  35  52 N8        30.24R
MESQUITE       PTCLDY    46  33  61 N5        30.21R
LANCASTER      CLEAR     41  32  71 W3        30.22R
$$

TXZ091>094-102>105-117-120-121-131>134-080500-
NORTH CENTRAL TEXAS

CITY           SKY/WX    TMP DP  RH WIND       PRES   REMARKS
SHRMAN/DENISON CLEAR     45  29  54 N7        30.25R
GAINESVILLE    CLEAR     46  28  50 N9        30.27R
BOWIE          CLEAR     44  28  54 N12       30.29R WCI  38
BRIDGEPORT     PTCLDY    49  32  51 N8        30.27R
DECATUR        CLEAR     49  26  40 N9        30.25R
DENTON         PTCLDY    47  31  53 N9        30.24R
MCKINNEY       PTCLDY    47  32  56 N10       30.22R
GREENVILLE     PTCLDY    45  32  61 NW5       30.21R
ROCKWALL       PTCLDY    46  35  64 N5        30.20R
TERRELL        PTCLDY    41  34  76 N3        30.21R
WAXAHACHIE     CLEAR     44  36  73 NW6       30.22R
CLEBURNE         N/A     48  30  49 NW9       30.24R
GRANBURY       PTCLDY    47  30  52 W5        30.25R
$$

TXZ083>090-098>101-113>116-127>130-139>142-154-155-080500-
WESTERN NORTH TEXAS

CITY           SKY/WX    TMP DP  RH WIND       PRES   REMARKS
WICHITA FALLS  CLEAR     46  25  43 N16       30.31R WCI  39
WF-KICKAPOO    CLEAR     51  24  34 N16G24    30.33R
VERNON         CLEAR     49   7  18 N22G32    30.35R
ABILENE        CLEAR     45  27  49 N6        30.29R
ABILENE-DYESS  CLEAR     38  26  61 N6        30.28R WCI  34
BRECKENRIDGE   CLEAR     47  27  44 CALM      30.28R
GRAHAM         CLEAR     44  30  58 N8        30.28R WCI  39
MINERAL WELLS  CLEAR     48  29  47 N9        30.24R
STEPHENVILLE   CLEAR     49  27  43 N8        30.26R
COMANCHE       CLEAR     47  29  48 N10       30.23R
BROWNWOOD      PTCLDY    50  25  37 N12       30.23R
COLEMAN        PTCLDY    48  25  40 N14       30.25R
$$

TXZ143>147-156>162-174-175-080500-
CENTRAL TEXAS

CITY           SKY/WX    TMP DP  RH WIND       PRES   REMARKS
WACO           PTCLDY    45  34  65 N7        30.19R
WACO-TSTC      CLEAR     46  36  66 N6        30.20R
WACO-MCGREGOR  PTCLDY    46  34  62 NW9       30.19R
HILLSBORO      PTCLDY    48  33  55 N8        30.20R
CORSICANA      PTCLDY    49  35  58 NW8       30.20R
MEXIA          PTCLDY    50  32  50 NW6       30.17S
HEARNE         CLEAR     41  35  78 CALM      30.17S
CAMERON        CLEAR     48  34  57 CALM      30.16R
TEMPLE         PTCLDY    47  32  56 N3        30.17R
KILLEEN        CLEAR     49  33  54 NW6       30.16R
KILLEEN-SKYLRK CLEAR     47  34  60 CALM      30.16R
FORT HOOD      CLEAR     48  33  56 N6        30.14R
GATESVILLE     PTCLDY    45  32  61 CALM      30.21R
HAMILTON       CLEAR     46  30  54 N7        30.22R
LAMPASAS       CLEAR     52  32  45 N7        30.16R
$$

TXZ095>097-106>112-122>126-135>138-148>153-164>167-080500-
EAST TEXAS

CITY           SKY/WX    TMP DP  RH WIND       PRES   REMARKS
PARIS          CLEAR     46  27  46 NW6       30.18S
SULPHUR SPRNGS CLEAR     49  38  65 CALM      30.21R
MOUNT PLEASANT PTCLDY    51  34  52 NW14G22   30.19R
GILMER         PTCLDY    53  33  48 W6        30.16S
MINEOLA        PTCLDY    45  34  65 W3        30.19R
TYLER          CLEAR     51  33  50 W5        30.17R
LONGVIEW       PTCLDY    48  33  56 W5        30.15R
MARSHALL       PTCLDY    43  35  72 CALM      30.17S
ATHENS         PTCLDY    41  34  75 CALM      30.18R
PALESTINE      CLEAR     44  36  71 N3        30.19S
JACKSONVILLE   CLEAR     52  33  48 W5        30.19R
HENDERSON      PTCLDY    41  34  77 CALM      30.18R
CENTER         FAIR      42  38  84 CALM      30.16R
NACOGDOCHES    CLEAR     37  34  87 CALM      30.16S
LUFKIN         CLEAR     42  36  79 CALM      30.17R
$$

SUPPLEMENTAL OBSERVATIONS (CENTRAL)

CITY           SKY/WX    TMP DP  RH WIND       PRES   REMARKS
LAKE TEXOMA      N/A     52  32  46 NW10        N/A
CADDO GRASSLND   N/A     46  28  49 NW3         N/A
PAT MAYSE LAKE   N/A     48  28  46 W2          N/A
GREENVILLE       N/A     48  32  53 NW7         N/A
CEDAR HILL       N/A     45  32  61 CALM        N/A
ATHENS           N/A     45  37  76 CALM        N/A
LAKE LIMESTONE   N/A     48  34  57 N6          N/A
MCGREGOR         N/A     45  34  65 N6          N/A
TEMPLE           N/A     52  32  46 N1          N/A
$$

SUPPLEMENTAL OBSERVATIONS (WEST)

CITY           SKY/WX    TMP DP  RH WIND       PRES   REMARKS
MILLERS CREEK    N/A     48  25  40 N14         N/A
POSSUM KINGDOM   N/A     46  23  39 N6          N/A
LBJ GRASSLAND    N/A     48  27  43 N7          N/A
GRANBURY         N/A     46  28  49 W6          N/A
COMANCHE         N/A     46  23  39 N12         N/A
HAMBY            N/A     36  25  64 CALM        N/A
IVIE RESERVOIR   N/A     52  28  40 N10         N/A
COLORADO BEND    N/A     50  25  37 NE5         N/A
$$

SUPPLEMENTAL OBSERVATIONS (EAST)

CITY           SKY/WX    TMP DP  RH WIND       PRES   REMARKS
CLARKSVILLE      N/A     46  32  57 NW3         N/A
TEXARKANA        N/A     45  36  70 W3          N/A
LINDEN           N/A     48  32  53 W2          N/A
GILMER           N/A     55  34  44 W7          N/A
HENDERSON        N/A     43  34  70 W3          N/A
LUFKIN           N/A     41  36  81 MISG        N/A
N SABINE NF      N/A     39  36  87 MISG        N/A
S SABINE NF      N/A     39  36  87 CALM        N/A
$$

SUPPLEMENTAL OBSERVATIONS ARE A COLLECTION OF AUTOMATED INSTRUMENTS
THAT ARE MAINTAINED BY A VARIETY OF FEDERAL AND STATE AGENCIES.
CERTAIN ELEMENTS...SUCH AS HUMIDITY VALUES AND SUSTAINED WIND
SPEEDS...MAY BE APPROXIMATED.





USA.gov is the U.S. government's official web portal to all federal, state and local government web resources and services.